Wind_Speed
36 34 40 45 47 51 49 49 42 18 16 30 28 26 28 27 27 32 36 30 21 22 31 35 33 31 29 24 19 19 22 23 25 25 23 21 18 16 15 15 16 16 15 14 15 15 15 15 16 17 19 19 19 20 20 19 20 21 21 22 23 23 23 22 20 15 11 9 10 12 14 15 15 15 17 17 17 17 16 16 15 14 12 11 10 9
35 37 44 45 41 45 46 46 43 21 12 23 26 24 26 24 25 29 34 32 22 17 23 30 32 32 29 25 23 22 23 25 26 25 23 21 18 16 16 16 16 16 17 16 15 16 17 17 17 18 19 19 20 21 21 20 21 22 22 24 24 24 23 22 18 14 11 10 11 12 13 15 16 17 18 17 16 16 16 15 14 13 11 10 9 9
37 41 42 40 37 39 41 43 43 27 15 21 23 23 26 23 22 25 29 30 26 19 19 24 30 33 30 29 27 25 23 22 24 24 22 20 17 16 17 18 17 17 17 17 16 16 18 18 18 19 19 20 21 22 22 21 22 23 23 24 25 25 23 21 17 14 12 12 13 14 15 16 17 18 18 17 16 16 16 14 12 12 10 9 9 9
35 37 38 36 34 35 37 40 42 31 19 22 23 20 25 26 23 23 23 25 29 26 19 18 26 32 32 31 31 28 26 25 25 26 24 21 17 15 16 18 18 17 17 17 17 18 20 20 20 19 19 21 23 23 23 22 23 23 22 23 25 26 24 20 18 16 16 16 17 17 18 18 18 18 17 16 15 15 14 12 11 11 10 9 9 8
30 26 32 36 32 31 33 35 41 37 24 21 23 20 22 27 28 24 20 21 25 27 23 18 21 31 34 33 33 32 31 30 29 28 26 23 20 17 17 19 19 18 17 17 19 19 20 21 20 19 20 22 24 24 23 23 24 23 22 24 27 26 23 21 19 18 19 20 19 19 19 19 18 17 16 14 13 13 12 11 11 11 11 10 9 8
29 17 24 35 34 31 31 32 40 42 31 21 22 23 20 21 27 25 20 21 23 22 26 24 15 19 33 36 34 34 33 32 32 31 29 26 23 20 18 20 20 18 18 19 20 21 22 21 19 20 21 23 25 24 23 23 24 24 23 25 28 27 24 22 20 20 22 21 20 19 18 18 16 15 14 13 13 12 11 11 11 11 11 11 9 7
32 17 16 30 35 32 30 29 36 42 38 27 22 26 23 20 26 28 21 20 22 20 24 29 18 9 22 35 36 35 34 33 33 32 31 29 25 22 20 20 20 19 19 19 21 23 24 22 20 20 22 24 25 24 22 23 24 24 24 26 28 27 25 23 22 23 23 21 19 18 17 17 15 14 14 12 11 11 11 12 13 13 12 11 9 7
35 24 15 24 33 34 32 30 33 40 41 32 24 25 25 22 25 30 24 16 17 19 19 28 27 14 14 28 34 36 36 34 35 33 30 30 27 23 24 24 22 21 21 21 22 24 25 22 20 22 23 24 25 23 23 23 23 23 25 27 29 28 25 24 24 24 22 20 19 18 17 17 15 14 14 12 10 11 12 13 14 13 12 10 8 7
30 32 20 21 31 34 35 33 31 35 38 34 26 23 23 23 23 27 26 17 12 15 18 25 28 16 9 20 28 33 38 37 36 35 31 30 29 26 27 27 24 24 24 23 23 25 25 22 21 23 24 25 25 24 23 22 22 24 27 29 30 29 27 26 26 24 20 19 19 18 17 15 13 14 14 13 12 11 11 12 13 12 11 9 8 8
15 31 24 19 28 33 35 33 29 32 35 34 29 21 20 20 18 20 20 17 11 9 16 25 27 14 6 18 26 28 35 38 35 32 30 29 29 28 28 27 26 26 26 25 25 25 25 22 22 23 25 26 26 25 24 23 24 26 28 29 30 30 28 28 27 22 18 18 18 18 16 14 13 14 15 16 15 13 11 11 11 10 10 9 8 7
5 21 26 21 24 29 31 31 29 30 31 33 33 26 20 15 14 15 15 15 9 6 14 20 24 17 7 16 28 29 30 33 31 30 30 31 31 31 30 29 28 27 27 26 25 25 25 23 23 24 26 27 27 26 25 25 26 27 28 29 29 30 29 29 25 19 18 19 18 18 16 15 15 16 18 17 15 14 12 10 10 9 9 9 8 6
9 15 29 27 21 23 28 30 28 27 30 34 34 29 19 12 10 10 11 13 8 5 11 15 19 18 12 12 22 27 28 28 29 31 33 35 35 34 32 30 29 27 27 27 25 25 25 24 24 25 27 29 28 27 25 25 27 28 28 28 28 29 29 27 22 17 18 19 18 18 16 16 18 18 18 16 15 15 12 10 10 9 9 8 7 6
18 17 26 26 21 21 26 31 28 24 31 35 35 31 18 7 7 6 5 7 4 1 7 15 17 14 14 18 19 21 26 28 29 31 33 35 36 34 32 30 29 28 27 27 25 24 25 24 24 26 28 30 29 27 25 26 28 28 27 27 27 28 28 25 21 18 19 20 19 18 15 16 18 19 18 16 17 15 12 10 9 8 8 7 6 6
21 15 21 25 24 24 28 35 36 32 36 40 39 35 20 5 4 6 2 1 2 3 7 14 16 9 10 19 24 24 26 29 30 31 32 34 33 32 32 31 30 29 28 27 26 26 25 24 25 26 28 30 30 27 27 28 29 27 25 25 26 27 27 25 22 19 20 20 18 16 14 14 16 18 17 17 16 13 11 9 9 9 8 7 6 6
19 9 20 29 27 28 31 35 40 37 36 40 41 36 24 9 3 4 3 2 4 4 7 12 10 6 7 13 22 27 30 31 32 33 33 32 31 30 31 32 31 30 30 28 27 27 26 25 25 26 28 30 29 28 28 29 29 26 23 23 25 26 26 25 21 19 19 18 15 13 12 14 18 19 17 16 14 11 10 9 10 10 9 7 7 6
19 7 17 29 26 28 32 32 36 36 31 35 39 35 30 18 5 4 6 6 6 4 5 12 8 4 7 13 20 25 30 33 33 34 34 31 30 30 31 33 33 31 31 29 28 28 27 25 26 26 27 29 30 29 29 28 28 25 21 21 23 24 25 23 18 19 19 15 13 11 10 14 20 21 17 15 12 10 10 10 10 9 7 7 7 6
18 7 13 25 22 24 30 32 35 35 29 32 37 36 36 26 8 4 8 8 8 4 3 11 11 7 7 12 24 28 28 32 34 34 33 31 31 32 32 33 33 32 30 29 28 28 27 26 26 26 26 27 29 29 28 27 26 23 21 20 21 22 23 21 19 19 15 9 10 11 12 16 20 19 16 14 12 11 11 10 9 8 7 7 7 6
18 11 15 26 22 18 24 29 32 35 31 32 36 33 31 26 15 7 3 4 5 3 4 9 13 15 11 10 21 29 29 29 31 32 31 31 32 32 31 31 32 31 29 28 28 28 27 27 27 26 26 27 28 28 27 26 24 22 21 20 20 20 20 20 18 14 10 9 11 12 15 18 19 18 17 16 14 13 11 10 8 7 7 6 7 7
17 13 14 26 24 16 22 29 30 33 31 30 33 31 27 22 17 12 3 2 4 3 3 5 9 16 19 16 17 26 31 28 27 30 31 31 32 31 31 31 31 30 29 28 29 29 28 27 27 26 26 27 27 27 26 25 23 21 20 20 19 19 18 18 16 11 10 12 14 15 17 19 19 18 18 16 14 12 10 9 8 7 7 6 7 7
17 12 10 24 25 20 27 34 36 37 31 25 27 32 30 21 18 17 8 2 4 3 3 3 2 9 19 22 18 20 28 28 27 30 30 30 32 31 30 30 29 27 27 28 29 29 28 27 27 27 27 27 26 25 25 25 23 21 20 20 18 17 16 16 15 12 12 13 13 16 18 19 19 18 18 16 14 11 10 9 8 8 8 8 7 7
16 11 10 25 27 23 32 38 41 43 36 28 28 35 33 20 18 21 14 10 5 1 4 4 1 7 15 20 20 19 22 26 29 30 29 30 31 30 29 27 26 25 26 27 27 27 27 27 27 27 28 28 26 25 25 25 23 21 21 20 17 16 16 15 15 14 14 13 13 15 18 19 19 19 19 16 13 11 10 9 10 10 10 9 9 8
12 7 11 28 32 29 35 37 38 41 39 32 27 33 34 22 18 17 10 15 12 3 2 3 1 9 16 18 20 21 21 24 28 30 30 29 29 29 28 26 26 27 27 26 26 26 27 26 27 28 29 28 26 26 26 26 24 22 21 19 17 16 16 17 16 15 15 15 15 16 18 19 20 20 18 15 13 12 11 10 10 10 11 11 11 10
8 4 9 26 34 30 28 27 29 34 38 34 23 25 31 25 22 18 8 11 15 8 6 4 2 11 20 21 22 24 24 24 27 31 31 29 28 28 28 27 26 27 26 25 24 26 26 25 26 28 28 28 26 26 27 26 24 22 21 19 17 18 18 18 18 17 16 17 18 19 20 20 20 20 18 14 12 12 12 12 12 11 12 12 12 12
5 2 5 16 25 24 22 22 23 27 34 37 29 23 27 29 25 19 12 13 15 12 7 3 2 9 20 24 24 25 26 25 28 32 32 30 29 28 28 28 27 26 26 24 23 25 26 25 26 27 27 27 26 27 27 26 24 23 22 20 19 19 19 19 19 18 18 19 20 21 21 20 20 20 19 15 12 12 13 13 14 13 13 14 14 14
6 3 4 12 14 12 14 15 18 25 32 38 37 28 25 29 27 20 16 17 15 14 12 6 3 9 17 22 21 22 26 28 30 32 30 29 29 28 27 27 26 26 26 25 24 25 26 25 26 27 26 25 25 26 26 25 24 23 22 21 20 19 19 19 19 19 19 20 22 22 22 21 20 20 20 17 14 14 14 15 15 15 15 15 15 14
3 3 2 8 10 8 10 14 22 33 36 37 40 35 26 26 30 25 19 16 12 12 15 11 7 11 16 18 16 17 24 30 32 30 28 28 29 28 27 26 25 26 26 26 25 26 26 25 25 26 26 25 25 25 24 24 24 24 23 22 21 19 19 20 19 19 19 20 22 23 22 21 20 20 20 18 16 16 15 16 16 16 16 16 16 15
4 7 6 6 15 19 22 24 28 34 35 33 36 38 30 25 28 27 20 15 13 12 16 17 14 13 15 16 14 13 20 28 30 29 28 27 27 27 26 24 24 25 26 26 25 26 26 25 26 26 26 25 25 24 23 24 25 25 24 23 22 20 19 19 19 19 20 21 22 22 21 21 20 20 20 19 18 17 16 17 17 17 17 17 17 16
11 13 9 3 15 22 23 22 24 28 30 29 32 35 31 24 25 30 26 18 13 11 14 17 16 15 15 16 14 12 16 24 27 27 27 26 26 25 24 22 22 24 25 26 26 26 25 25 26 26 25 25 24 23 23 24 25 26 25 24 23 21 20 20 20 20 20 21 22 22 21 20 20 20 20 19 19 18 17 18 18 18 18 18 18 16
14 15 7 8 15 17 18 18 22 28 27 25 26 28 28 26 24 28 30 25 17 10 10 14 15 16 16 15 14 12 13 20 24 24 24 24 23 22 21 20 21 23 24 26 26 26 25 24 25 24 23 23 23 22 22 23 25 26 26 25 24 22 20 20 21 21 21 22 22 22 21 21 20 20 20 20 19 18 19 19 19 19 19 19 18 16
13 12 4 14 17 17 18 17 22 29 27 22 23 23 24 25 23 22 27 29 24 14 9 9 11 14 17 18 18 16 14 17 19 20 20 20 20 20 20 18 18 20 22 23 24 24 23 22 22 22 21 22 22 22 22 22 24 25 26 26 25 23 21 21 21 22 22 23 23 23 22 22 22 21 21 20 19 19 20 20 20 20 19 18 17 16
11 9 7 19 19 18 23 23 26 30 27 22 23 25 26 26 22 21 24 28 27 20 13 10 9 10 15 19 21 21 20 19 19 18 18 18 19 19 17 16 16 18 18 20 21 22 22 21 21 21 21 22 22 22 22 22 23 25 26 27 26 24 22 21 22 22 23 24 24 24 23 23 22 21 20 20 20 21 21 21 20 19 18 17 16 15
8 7 15 23 18 17 26 30 30 33 28 22 21 23 27 28 24 21 22 24 26 25 18 14 12 8 10 15 20 23 25 25 24 23 21 21 21 19 16 16 16 16 16 17 18 20 21 21 21 21 21 21 22 21 21 22 22 24 25 26 26 25 23 22 22 22 23 25 25 25 25 23 22 20 20 20 21 21 21 21 20 19 18 17 16 15
4 11 19 23 17 16 24 30 33 33 24 18 20 20 20 25 26 22 20 20 22 23 20 18 15 9 7 11 15 19 24 26 27 27 26 24 22 18 16 15 14 14 14 15 15 17 19 20 20 20 19 18 19 20 20 20 20 22 24 25 26 27 25 24 23 23 24 25 26 26 25 23 22 20 20 20 21 21 21 21 20 19 18 17 16 15
8 14 18 20 17 16 21 28 30 24 11 11 21 19 14 18 23 21 19 18 17 16 15 16 16 10 7 8 10 14 19 23 25 26 25 23 20 17 16 14 12 12 12 13 15 17 18 19 20 19 17 17 18 18 18 19 19 21 23 26 27 28 27 25 24 24 25 26 26 26 25 24 23 22 21 21 20 21 22 21 21 20 18 16 15 15
9 15 15 19 21 20 24 27 19 9 6 12 20 17 13 15 18 17 17 17 16 14 11 12 14 12 10 8 8 12 17 19 20 22 23 21 19 17 15 12 9 8 8 10 13 15 17 18 19 19 19 18 18 18 19 20 21 22 24 27 28 29 28 27 27 26 26 27 28 27 26 25 24 23 23 22 21 22 22 22 22 20 18 16 15 15
8 15 15 19 22 19 19 17 9 5 11 17 17 15 15 15 16 18 18 17 16 14 13 14 15 14 13 10 9 12 16 17 16 18 20 20 20 18 16 12 8 6 5 5 8 11 12 14 17 20 20 19 19 19 20 22 23 23 24 27 28 29 29 29 29 28 27 28 29 28 27 26 26 26 24 24 24 24 23 24 23 20 18 16 15 14
6 14 17 17 15 13 13 14 13 13 13 14 15 16 16 16 16 18 19 18 17 16 16 17 16 14 14 13 11 11 14 15 16 18 20 21 21 19 17 14 11 9 8 8 8 9 11 12 15 18 20 21 21 20 20 21 23 25 27 28 29 30 29 30 29 28 28 28 29 30 30 28 27 27 25 26 27 24 23 25 24 20 17 16 15 13
6 13 16 12 10 15 19 16 12 8 6 9 15 16 16 17 16 15 16 17 18 17 16 17 17 14 14 14 15 14 14 15 16 18 20 22 22 20 17 15 13 12 11 11 11 13 14 15 15 15 17 21 22 22 22 22 24 27 30 31 30 30 29 28 28 28 28 29 31 31 30 28 26 26 26 28 27 25 25 27 24 20 18 17 15 14
9 10 12 13 14 19 20 13 5 2 6 12 15 15 17 18 16 15 14 13 15 17 16 16 16 14 13 15 16 16 17 16 14 15 18 19 19 18 16 15 14 12 12 13 15 16 16 17 17 16 17 21 23 24 23 22 23 27 30 28 27 26 26 25 25 26 27 28 28 27 26 25 24 25 28 26 24 25 27 27 23 20 19 17 15 14
13 12 12 16 18 17 16 13 7 5 9 13 15 15 16 16 16 15 10 8 13 17 16 16 16 15 15 16 14 14 16 17 14 14 16 17 17 17 16 15 14 13 13 14 16 17 17 18 19 18 18 20 22 23 23 23 24 26 25 22 21 22 22 22 22 23 23 23 24 24 23 22 21 23 26 24 21 24 30 29 25 23 20 17 15 14
14 15 16 19 19 17 16 14 11 10 13 15 14 14 14 14 14 12 8 10 15 16 15 17 17 17 17 16 13 13 15 17 17 15 16 17 17 17 16 15 14 13 14 14 15 15 16 17 18 19 19 20 22 23 24 24 24 23 21 19 19 21 22 19 18 18 19 20 21 21 20 18 17 18 21 21 20 24 28 27 24 23 20 17 15 14
11 12 13 16 16 16 17 16 13 12 14 14 12 12 12 12 11 10 10 13 15 15 15 16 17 18 18 16 14 13 14 17 17 15 15 15 15 13 12 12 11 10 11 11 11 12 13 15 17 18 20 22 24 24 24 24 23 21 19 18 20 22 23 21 19 18 17 18 18 18 17 16 16 15 16 19 20 21 22 21 21 20 19 18 16 16
7 8 8 10 11 12 14 13 9 8 11 11 10 9 9 10 11 11 11 11 12 13 14 15 15 17 17 17 17 15 15 17 17 15 14 14 12 11 10 9 8 8 8 7 8 10 11 14 16 17 18 21 22 24 25 24 22 21 20 20 22 22 21 21 21 20 19 19 18 16 16 16 16 15 16 19 20 21 21 21 22 21 18 17 18 18
6 6 6 7 6 6 7 7 7 8 11 10 9 9 10 10 11 10 8 7 8 10 11 12 13 14 15 17 18 18 19 20 19 17 15 14 13 12 10 10 9 9 8 8 8 9 11 13 15 15 15 17 18 21 22 22 22 22 22 22 22 19 15 17 20 20 20 21 19 17 16 16 15 16 19 20 20 23 24 22 22 21 18 18 19 19
5 5 5 5 5 5 7 9 11 12 11 9 9 10 10 9 8 7 5 4 4 5 8 9 11 12 14 16 18 19 21 22 23 20 16 14 13 12 10 9 9 8 9 9 9 10 12 14 15 15 15 15 16 18 18 19 21 23 22 21 20 16 13 17 20 19 20 20 18 17 16 15 15 18 20 21 22 23 23 21 20 21 19 19 19 19
6 7 6 6 5 6 8 10 11 10 9 9 8 8 7 7 6 5 4 3 3 1 3 6 9 12 14 15 17 19 22 23 25 24 19 15 14 13 11 10 10 9 10 9 10 11 12 13 14 15 15 15 16 17 17 18 21 22 21 21 19 16 16 19 21 20 20 18 16 15 15 15 16 18 19 21 22 23 22 20 20 21 20 19 19 20
9 8 7 6 6 5 6 8 9 9 9 8 6 6 5 4 3 3 2 2 3 3 2 2 5 8 12 16 17 19 22 24 26 26 22 17 15 16 15 14 12 11 11 10 10 10 10 10 11 13 14 16 17 18 18 19 19 20 21 21 19 16 18 22 23 22 21 18 16 16 17 17 17 18 19 21 22 22 22 21 22 22 21 20 19 19
10 9 8 8 6 5 5 6 7 7 6 5 5 4 3 1 0 1 2 3 4 3 2 2 3 5 8 12 16 19 21 23 26 28 26 21 20 20 20 18 16 14 13 13 13 12 11 10 10 11 13 15 17 17 18 18 16 16 20 22 20 18 20 23 23 22 21 20 20 20 20 20 19 19 20 21 22 22 22 21 21 21 21 20 20 18
8 9 10 10 9 7 7 6 6 5 4 4 4 3 2 2 2 3 4 5 5 4 3 2 3 4 5 8 11 16 19 21 24 27 28 27 26 25 24 21 19 17 15 16 15 14 13 12 12 12 13 14 14 15 15 15 15 16 19 22 21 20 21 22 22 22 22 23 23 23 23 21 20 19 20 22 22 23 23 22 21 21 22 22 21 21
8 9 10 11 11 10 9 8 6 5 5 4 4 4 4 4 4 5 6 6 7 7 6 4 3 4 5 6 8 11 15 18 21 25 28 29 29 29 27 24 21 18 17 17 17 16 15 15 14 14 14 14 15 15 14 14 15 17 21 24 23 21 22 23 24 23 23 23 24 24 24 22 20 19 20 22 23 23 23 22 22 24 25 24 23 23
10 10 11 12 12 11 11 10 9 7 6 5 5 5 5 5 5 6 7 8 9 10 10 9 8 7 6 7 9 10 12 15 18 21 25 27 28 28 27 25 22 20 19 19 19 17 16 16 15 15 15 16 17 17 16 16 16 18 22 26 25 23 23 24 24 24 25 26 26 25 24 22 20 19 20 21 23 24 23 22 23 25 25 24 24 25
Wind_Direction
202 203 206 207 207 205 204 203 199 193 206 206 205 204 204 208 213 218 218 216 218 222 222 221 218 216 217 218 214 215 216 209 205 207 207 203 200 206 216 221 219 214 214 218 220 217 212 214 216 214 215 218 217 214 212 211 210 210 212 214 211 205 203 206 210 214 223 233 240 244 246 244 241 238 236 235 232 229 228 227 228 231 231 230 229 223
202 207 210 209 208 206 206 205 200 191 188 200 205 205 201 205 211 217 219 214 210 215 219 219 218 217 217 219 218 222 221 209 204 206 204 201 204 217 227 226 223 221 221 224 224 220 217 219 221 217 216 219 215 212 212 212 213 211 210 212 209 203 205 209 213 218 226 235 238 238 241 241 238 236 235 233 230 227 228 227 227 229 229 222 213 210
205 211 212 207 207 207 206 207 201 191 178 186 197 202 199 198 201 214 221 214 207 208 212 214 216 217 219 222 223 227 222 207 204 209 208 210 216 226 231 228 226 227 228 228 228 225 223 225 226 221 219 219 213 211 213 214 214 210 207 210 206 200 205 210 215 221 223 227 232 229 227 230 233 233 231 228 225 225 228 226 224 227 224 210 204 210
207 214 212 205 205 205 205 207 201 192 180 178 182 189 195 192 188 199 211 212 210 212 214 211 212 217 221 224 225 225 221 215 211 210 210 213 219 227 232 229 228 232 233 230 229 228 227 228 230 226 223 219 213 212 212 213 213 209 207 208 201 199 206 211 216 222 220 220 226 226 224 225 226 226 225 225 223 224 227 224 219 220 211 201 205 212
207 215 213 205 202 203 204 206 202 194 184 177 176 176 185 191 194 195 197 202 206 213 218 211 207 214 218 222 223 223 222 221 217 210 210 216 221 222 223 224 228 232 231 228 228 229 229 231 234 232 227 219 214 212 211 211 212 212 210 204 200 202 209 215 219 221 220 220 222 223 224 226 225 224 224 225 223 224 227 221 213 207 200 198 205 211
207 210 214 207 201 201 203 205 204 196 190 185 177 172 171 184 197 198 193 194 198 207 215 210 203 213 217 218 220 221 221 219 216 213 214 221 226 223 218 218 222 226 225 224 227 229 229 232 237 234 227 220 215 211 209 209 210 213 210 205 203 206 213 220 222 222 222 219 218 221 224 227 227 227 229 231 227 225 225 217 207 200 198 201 208 216
207 198 209 209 203 200 200 205 206 197 195 196 178 168 166 170 189 196 193 192 196 202 212 214 213 214 216 217 217 217 217 216 214 214 216 220 225 223 217 213 216 219 218 218 222 226 227 231 237 235 226 220 214 209 206 206 209 211 209 207 208 211 218 225 224 223 222 220 221 226 230 230 228 228 230 231 229 224 218 210 203 200 201 206 213 225
210 195 192 204 203 202 198 200 205 199 199 198 175 163 170 170 181 194 196 195 200 204 209 216 217 218 220 219 216 215 213 213 215 217 216 218 222 222 216 215 218 218 213 212 217 222 225 229 233 231 225 219 212 207 205 204 207 208 208 209 211 215 223 227 227 225 223 227 232 231 231 230 225 225 227 225 221 214 208 203 201 202 204 210 218 229
213 200 188 193 200 203 200 198 200 199 201 197 174 162 170 173 179 190 198 202 198 203 208 209 210 214 226 217 214 214 214 215 217 218 217 218 220 219 217 220 223 219 212 211 216 221 225 227 227 226 222 216 210 207 204 203 204 204 206 209 213 220 226 231 232 228 224 231 234 230 231 229 225 223 221 215 207 201 197 196 198 202 204 211 220 228
218 206 196 192 199 203 202 198 197 198 200 195 183 177 178 179 186 190 197 204 199 213 220 207 201 204 222 215 211 210 213 216 218 218 218 219 218 217 220 224 225 220 214 213 216 221 226 226 224 222 218 213 209 206 204 202 203 204 207 211 216 223 229 235 235 228 225 229 229 229 226 224 226 221 214 208 196 184 182 183 188 194 200 211 221 228
180 201 201 202 203 204 202 198 197 199 198 192 191 197 200 200 208 207 207 210 211 242 232 210 200 203 217 221 218 215 214 215 216 216 215 214 214 216 220 224 225 221 217 215 216 220 224 222 219 217 214 211 208 206 204 204 205 208 212 216 222 229 234 238 235 230 232 230 226 229 224 218 218 213 213 208 184 169 172 175 182 190 201 213 221 229
170 182 199 206 203 199 200 197 194 198 196 191 194 200 200 193 197 209 212 209 218 247 230 213 200 202 215 221 222 225 222 217 216 213 209 207 209 214 220 224 225 224 220 218 218 220 222 218 212 211 211 210 208 206 205 206 208 213 218 222 229 235 238 240 236 233 236 229 225 229 227 222 213 202 206 200 170 164 174 177 186 196 206 215 219 227
194 185 194 203 199 192 195 191 184 191 194 192 194 193 185 166 169 190 202 201 208 156 196 207 202 207 228 227 222 225 224 220 217 211 207 210 213 216 221 225 227 227 223 221 221 223 223 218 211 208 209 210 209 207 207 208 212 217 222 227 233 237 240 240 236 233 231 225 222 222 222 225 212 194 190 182 167 168 177 181 190 203 213 216 218 225
196 193 193 197 196 191 193 188 180 183 191 192 194 189 179 149 162 194 204 157 172 138 160 190 201 212 230 228 229 228 225 222 219 215 215 220 223 225 226 228 229 228 225 221 222 225 225 219 212 208 208 210 209 208 209 212 215 220 226 231 235 238 239 236 230 230 228 222 222 220 217 217 203 188 181 175 171 173 178 187 196 209 219 218 217 224
186 196 194 191 193 192 193 194 187 183 186 194 198 195 190 176 140 186 194 129 161 167 161 167 181 202 195 216 230 229 227 225 222 223 226 228 230 231 231 230 232 232 228 222 220 225 225 219 213 210 208 209 209 209 212 215 218 223 229 232 235 237 238 234 228 230 226 213 213 220 219 206 188 180 178 175 176 179 184 197 207 215 222 218 219 223
186 201 191 188 194 195 192 194 192 185 183 194 199 201 201 191 133 130 162 165 155 126 161 175 183 210 191 214 229 229 229 227 225 226 228 230 231 231 230 229 231 234 231 225 222 224 224 217 213 211 207 207 208 210 215 218 221 226 229 230 232 234 237 238 235 234 226 203 196 208 208 194 180 174 175 176 180 187 196 210 216 218 220 218 222 225
188 199 183 183 193 201 197 191 191 190 186 189 196 203 205 197 176 128 144 163 167 144 189 190 196 210 194 214 224 228 232 229 227 227 227 228 229 229 230 228 228 231 231 227 224 226 225 218 214 211 206 205 208 212 217 222 223 226 228 229 232 234 240 246 241 233 228 202 192 195 182 179 177 172 173 178 188 200 210 217 217 216 218 220 224 229
186 187 181 183 183 193 199 192 191 197 195 192 194 199 200 199 212 226 159 127 146 168 216 188 189 202 202 208 215 221 228 227 226 228 226 224 224 225 227 228 228 230 230 228 225 227 226 219 213 210 205 205 209 213 218 222 223 224 228 230 234 239 245 251 245 234 227 210 199 191 178 175 176 174 176 184 197 209 215 217 214 215 219 224 228 233
184 186 185 188 178 168 188 190 191 198 203 203 200 197 193 195 209 215 197 111 146 165 222 194 189 199 207 216 215 218 224 223 222 222 220 217 216 219 223 226 228 227 228 227 224 225 225 219 213 208 205 206 209 213 217 219 220 223 228 231 237 242 245 250 251 243 232 218 200 188 183 180 179 180 184 192 202 210 214 213 212 215 220 225 230 233
177 183 178 183 177 165 180 190 193 194 197 204 203 199 198 200 202 200 197 188 167 167 193 196 220 204 208 218 223 222 223 220 216 214 211 211 212 214 218 223 226 225 225 226 224 224 224 220 214 207 206 209 210 212 214 214 217 221 228 233 238 243 242 244 247 240 231 223 201 187 187 186 185 187 191 198 204 209 212 212 213 217 223 227 231 235
166 181 172 177 181 181 185 193 196 192 187 190 194 194 194 194 194 199 215 228 213 145 162 157 276 218 205 214 220 222 222 219 215 210 207 210 212 214 217 221 222 221 221 223 224 223 222 220 214 207 208 210 210 211 212 212 216 220 227 233 238 239 237 237 238 232 226 221 206 192 189 190 192 194 197 203 207 211 216 219 221 225 229 232 237 243
147 163 165 176 186 194 194 195 198 194 189 187 190 192 191 183 176 181 211 229 227 261 199 166 202 202 199 207 212 214 219 215 210 209 208 211 214 215 216 218 218 218 218 220 222 222 222 221 216 210 211 212 210 209 210 212 215 220 225 230 234 233 231 232 232 228 222 217 209 200 196 198 201 200 201 207 212 216 224 231 236 239 238 239 244 249
135 128 159 180 190 198 199 197 198 197 194 192 190 194 194 190 184 180 187 220 221 242 261 259 237 187 190 201 205 208 216 213 205 207 210 212 215 216 216 217 218 219 218 218 219 221 222 222 218 215 215 215 211 209 210 213 216 219 223 226 229 229 228 230 230 226 221 214 210 206 204 206 208 206 207 212 219 225 235 243 248 251 248 246 249 253
176 179 145 172 183 192 197 199 199 198 198 197 195 194 195 196 196 193 196 212 215 222 229 243 255 195 188 196 204 210 216 213 205 207 211 214 217 218 217 217 219 220 217 214 215 219 222 221 217 216 216 216 214 210 209 213 216 218 221 224 227 227 227 229 229 227 223 216 211 209 209 211 212 212 213 221 232 239 246 252 256 257 255 253 254 256
205 215 134 144 156 174 185 189 193 196 200 202 200 195 194 196 195 194 201 209 212 216 213 200 237 218 191 187 199 210 212 208 205 209 213 216 220 220 218 217 218 218 215 209 209 215 219 219 215 213 215 216 214 212 211 214 217 216 219 223 227 229 228 229 229 227 225 219 213 211 212 214 216 218 220 229 245 251 253 256 259 259 258 257 258 259
209 255 217 159 157 160 172 180 187 190 195 201 201 198 196 194 193 195 202 206 211 218 215 211 225 221 203 194 196 202 204 205 207 211 213 215 219 221 219 218 215 214 213 207 206 212 216 216 212 210 212 212 211 211 212 215 215 214 216 222 227 230 230 229 228 227 226 222 217 214 214 217 220 222 225 236 249 253 254 257 259 260 260 259 259 260
259 291 295 205 188 187 188 190 190 189 190 194 199 198 196 194 196 201 204 202 207 213 211 216 221 215 208 205 197 190 196 203 205 204 205 208 213 216 219 220 215 210 209 206 205 211 215 213 209 207 208 209 208 209 212 213 212 212 215 220 225 229 230 229 228 227 225 222 218 216 217 220 222 225 230 240 248 250 253 256 258 258 258 258 259 262
276 297 311 214 193 195 197 198 194 189 186 188 194 197 198 199 203 208 209 200 200 209 210 215 218 212 206 201 195 191 193 198 199 196 197 201 207 212 215 218 214 207 206 205 205 210 214 211 207 206 207 207 207 208 209 209 210 211 214 218 224 227 229 229 228 226 225 222 218 218 220 223 225 229 235 242 245 248 251 254 255 256 257 258 259 260
272 293 295 172 170 177 191 201 192 184 182 182 188 195 200 203 207 211 211 208 212 222 212 206 205 206 209 205 202 201 185 182 187 189 192 199 206 211 211 209 209 208 206 205 204 207 211 211 208 207 209 209 208 208 209 208 210 212 213 217 223 226 228 229 229 227 224 221 219 220 222 226 230 234 238 242 244 247 249 251 253 254 255 257 257 257
263 283 242 169 165 160 172 187 182 176 176 178 187 194 198 201 204 207 211 214 220 228 219 204 196 194 200 205 208 209 194 182 183 189 195 201 207 211 210 206 207 209 210 207 204 204 208 209 208 209 211 211 210 211 212 210 211 213 213 216 221 224 227 229 229 228 226 223 222 223 226 229 233 235 238 240 242 244 247 249 251 253 253 254 254 254
265 264 180 162 164 159 163 171 172 171 168 166 178 188 193 198 199 199 206 212 217 222 226 227 221 196 193 200 204 207 206 201 197 197 197 200 205 210 210 205 203 207 211 210 205 203 204 205 207 208 209 209 211 213 214 213 213 213 214 216 219 223 227 229 230 229 227 225 224 225 228 230 231 233 236 239 241 243 246 248 248 249 250 250 251 250
272 224 165 159 158 154 161 167 168 170 170 168 172 178 185 196 198 192 196 203 210 218 225 230 234 217 194 197 199 202 207 209 207 204 200 200 206 212 210 204 201 203 207 208 203 200 200 202 204 205 204 206 210 213 214 213 213 214 214 215 218 223 226 228 230 230 228 226 225 225 227 227 228 231 234 237 240 243 245 246 246 246 246 246 244 243
209 170 159 160 154 144 159 168 167 168 171 179 184 177 176 191 198 195 193 196 205 215 221 225 229 222 197 197 199 201 205 209 211 209 205 205 208 210 210 207 202 199 200 202 201 197 196 198 202 204 202 202 207 212 213 213 214 215 214 214 217 222 225 227 229 230 229 227 226 225 225 225 226 229 232 235 239 243 244 243 241 241 240 238 237 235
150 159 155 158 153 140 155 163 161 160 158 172 182 179 169 182 196 199 195 191 194 200 210 221 224 216 197 193 198 199 200 206 213 212 208 208 209 208 209 208 203 197 195 200 203 203 201 200 202 205 203 202 205 210 214 216 215 216 215 213 216 220 224 226 228 229 229 228 227 226 225 226 227 228 230 234 240 244 244 240 236 234 231 229 229 231
136 155 145 145 147 144 150 154 154 155 146 155 169 172 161 167 182 187 182 179 179 174 179 200 209 209 201 189 191 196 195 200 210 211 208 208 208 210 213 216 214 206 199 201 206 212 212 210 210 210 209 207 205 207 216 221 219 218 217 216 217 219 222 226 228 228 228 228 227 227 227 228 229 230 231 236 241 245 244 240 232 227 224 222 224 228
118 153 138 132 141 146 148 148 144 126 128 140 155 164 157 155 163 170 170 171 174 170 166 176 187 197 202 197 188 188 191 196 204 206 206 206 208 211 215 217 219 217 217 216 216 222 226 224 222 219 215 213 210 208 216 223 222 220 220 220 219 219 221 225 228 228 228 228 228 228 229 229 230 232 234 238 242 244 242 237 230 220 215 217 220 226
103 152 139 124 131 143 131 116 115 119 119 131 147 155 158 154 154 164 171 169 167 165 163 166 173 187 204 210 203 192 191 196 199 201 201 203 208 212 213 215 218 221 230 241 241 237 231 227 229 228 221 218 217 215 219 226 227 225 224 222 220 219 221 225 227 227 228 229 229 228 228 229 231 235 238 242 247 247 238 231 224 214 210 214 216 221
89 151 149 130 123 137 131 112 104 111 112 131 143 151 162 162 156 162 169 165 162 162 163 165 170 182 198 204 201 198 199 203 204 204 202 203 206 209 211 213 215 217 224 234 237 235 231 227 230 232 224 218 220 221 223 228 230 228 225 222 219 220 224 229 229 229 230 231 230 229 229 230 232 237 241 245 250 250 239 226 216 205 204 209 212 214
85 131 149 137 127 134 134 120 99 110 126 135 140 149 161 166 164 164 167 170 168 165 166 168 169 173 181 185 187 192 199 203 204 204 206 207 209 213 216 218 219 223 227 231 230 228 229 229 229 227 218 214 217 221 224 227 228 227 225 222 220 223 227 232 234 235 236 237 238 238 238 240 241 245 250 252 250 244 236 226 213 202 201 205 208 211
90 114 131 131 130 134 129 113 100 117 134 136 137 144 156 164 167 165 168 183 177 169 169 172 170 170 174 178 180 185 189 192 192 197 206 211 216 224 230 229 230 230 227 228 228 226 227 230 231 228 220 214 216 221 226 227 225 226 228 225 225 228 230 233 240 244 246 246 244 244 247 252 255 255 258 262 254 239 233 223 209 201 198 199 205 210
85 102 112 116 123 130 122 109 104 119 133 134 133 140 151 159 166 168 168 175 175 173 173 173 172 172 172 174 178 180 183 188 192 199 209 214 220 230 235 236 235 229 223 224 225 224 227 230 233 231 223 217 217 222 228 229 227 230 233 229 231 236 233 233 241 246 247 248 245 243 246 252 255 254 258 263 255 242 238 230 215 202 193 192 200 207
72 86 98 104 111 117 115 110 109 117 126 126 122 132 147 155 157 154 152 162 174 179 179 177 177 176 174 175 180 183 188 193 197 204 212 215 218 222 223 226 228 225 225 225 222 222 225 227 232 234 229 225 224 223 228 231 230 233 233 228 233 241 240 240 242 240 240 244 242 239 240 242 242 246 256 263 255 242 236 232 226 213 194 186 194 201
68 77 88 92 98 109 112 110 108 117 128 126 115 118 134 142 140 137 140 155 170 177 180 184 184 182 182 183 184 186 192 197 201 208 211 210 211 211 210 209 209 209 213 215 216 221 223 223 228 233 235 236 233 229 231 233 230 231 231 226 235 248 250 245 242 237 237 239 237 235 236 236 237 245 257 259 249 233 222 220 225 220 199 186 192 195
83 90 93 88 90 101 103 100 107 122 127 121 106 103 110 117 125 131 136 150 163 171 177 183 186 188 192 193 192 191 194 198 203 207 208 207 208 213 217 214 209 207 206 206 212 219 222 225 228 230 236 242 243 241 239 234 231 233 230 225 237 255 254 237 231 230 232 235 235 235 234 232 238 252 256 249 235 223 218 218 223 220 202 191 193 192
104 106 113 108 97 91 92 102 116 123 120 110 104 103 101 100 105 109 111 125 154 175 181 184 187 189 193 199 202 200 198 200 204 204 203 206 208 211 215 213 212 213 208 207 212 216 221 227 229 231 237 242 248 253 248 237 234 234 228 225 236 246 235 224 225 226 230 233 232 230 229 232 241 251 250 237 223 219 219 219 222 219 206 195 194 192
133 125 127 132 122 105 101 109 120 125 119 110 107 103 96 91 89 85 77 66 54 69 193 200 198 194 194 198 204 207 207 207 207 204 201 200 205 211 215 214 215 218 216 215 215 215 220 226 229 234 237 239 246 254 250 242 238 232 224 225 231 229 218 217 222 228 233 232 226 226 233 242 247 248 242 228 220 219 218 215 217 218 208 196 194 195
155 149 144 151 154 139 122 118 123 127 125 119 114 109 103 98 91 86 71 39 20 7 337 260 219 207 203 200 202 208 212 212 212 211 206 203 208 218 222 224 224 224 225 225 219 216 221 228 231 236 239 241 246 251 250 248 242 229 221 223 229 228 219 215 221 231 232 225 223 234 244 248 248 246 237 226 221 221 219 214 214 215 208 197 195 199
164 166 164 168 169 158 145 139 136 135 136 138 139 140 139 139 155 284 308 319 326 332 326 288 255 235 223 215 209 209 212 214 216 217 215 214 218 222 227 231 230 226 224 221 216 216 220 222 224 230 235 240 245 249 250 249 241 228 222 222 226 227 220 217 226 231 225 219 227 237 240 240 244 245 237 228 224 223 220 217 216 214 206 197 195 198
171 173 172 174 176 172 168 168 166 167 176 186 192 199 211 234 271 292 299 302 299 289 269 250 248 243 241 237 226 217 216 218 219 219 218 219 222 226 231 233 231 227 224 220 215 214 215 213 213 220 229 237 242 245 246 241 233 224 217 216 221 222 219 225 236 234 224 223 228 230 230 234 241 245 238 228 222 220 220 218 214 209 203 198 196 198
181 179 175 174 176 177 179 180 181 189 199 206 217 232 245 258 270 278 282 284 280 267 250 242 247 244 241 245 241 229 223 221 220 220 220 221 225 230 232 231 227 223 219 216 212 210 209 208 209 214 222 231 239 245 246 240 233 225 217 218 225 227 225 233 239 234 230 232 230 225 228 235 242 244 238 228 221 220 221 218 211 205 202 201 202 203
189 184 180 180 181 182 184 185 188 197 202 201 210 227 242 256 263 268 273 275 275 270 263 259 261 259 249 242 241 236 228 224 222 222 222 224 226 228 227 225 222 218 214 212 212 211 209 210 212 216 222 229 235 241 245 241 236 232 226 224 225 224 224 232 236 232 233 238 234 226 226 234 242 243 236 227 223 222 222 219 213 208 207 209 210 209
Height
3018 3019 3017 3017 3019 3024 3029 3033 3038 3043 3046 3049 3053 3055 3058 3061 3063 3067 3071 3075 3078 3079 3081 3084 3088 3091 3093 3095 3097 3099 3100 3102 3103 3105 3108 3111 3113 3114 3116 3118 3119 3121 3122 3123 3124 3126 3127 3129 3130 3131 3132 3133 3133 3134 3135 3137 3138 3139 3140 3142 3143 3144 3146 3147 3148 3149 3150 3150 3152 3153 3155 3156 3157 3157 3158 3158 3159 3160 3161 3162 3163 3164 3165 3166 3167 3167
3016 3014 3012 3016 3022 3027 3031 3034 3039 3044 3046 3049 3052 3055 3058 3060 3063 3066 3069 3074 3077 3078 3080 3083 3086 3089 3091 3094 3095 3096 3097 3099 3101 3104 3106 3109 3111 3112 3114 3116 3117 3118 3120 3121 3122 3124 3125 3127 3128 3129 3130 3131 3131 3133 3134 3135 3136 3138 3139 3140 3142 3143 3145 3146 3147 3148 3149 3150 3151 3152 3154 3155 3156 3156 3157 3158 3159 3160 3160 3161 3162 3163 3164 3165 3166 3167
3011 3008 3011 3018 3023 3027 3031 3034 3039 3044 3046 3048 3051 3054 3057 3060 3063 3066 3069 3072 3075 3077 3079 3081 3084 3087 3089 3091 3092 3094 3096 3098 3101 3103 3105 3107 3108 3110 3112 3113 3115 3116 3117 3119 3121 3122 3123 3125 3126 3127 3128 3129 3130 3131 3133 3134 3135 3136 3138 3139 3141 3143 3144 3146 3147 3147 3148 3149 3150 3151 3153 3154 3155 3156 3157 3158 3159 3159 3160 3160 3161 3162 3163 3165 3166 3167
3006 3007 3012 3019 3023 3027 3030 3033 3038 3043 3045 3047 3049 3052 3055 3058 3062 3064 3066 3070 3073 3076 3077 3080 3082 3085 3086 3088 3089 3092 3094 3096 3098 3100 3102 3104 3106 3108 3110 3111 3113 3114 3116 3117 3119 3120 3122 3123 3124 3126 3127 3128 3129 3130 3131 3132 3133 3135 3137 3138 3140 3142 3144 3145 3146 3146 3147 3148 3149 3150 3151 3153 3154 3155 3156 3157 3158 3158 3159 3160 3161 3162 3163 3164 3165 3166
3006 3008 3013 3018 3022 3026 3028 3032 3036 3040 3043 3045 3048 3051 3054 3057 3060 3063 3066 3069 3072 3074 3076 3078 3080 3081 3082 3084 3086 3089 3091 3093 3095 3098 3099 3101 3103 3105 3107 3109 3110 3112 3114 3116 3117 3119 3120 3121 3123 3124 3125 3126 3127 3129 3130 3131 3132 3134 3136 3137 3139 3141 3142 3144 3144 3144 3146 3147 3148 3149 3150 3152 3153 3154 3156 3156 3157 3158 3158 3159 3160 3162 3163 3164 3165 3166
3007 3010 3013 3017 3021 3024 3027 3029 3033 3038 3042 3044 3047 3050 3054 3057 3060 3063 3066 3068 3070 3072 3073 3075 3077 3076 3077 3080 3083 3085 3088 3090 3093 3095 3097 3099 3101 3103 3104 3107 3108 3110 3112 3113 3115 3117 3118 3120 3122 3123 3124 3125 3126 3128 3129 3130 3131 3133 3134 3136 3138 3140 3141 3142 3142 3143 3144 3145 3147 3148 3150 3151 3153 3154 3155 3156 3156 3157 3158 3159 3160 3161 3162 3163 3165 3165
3007 3011 3013 3016 3020 3023 3026 3028 3031 3037 3041 3043 3046 3050 3053 3056 3059 3062 3064 3066 3067 3068 3070 3072 3073 3073 3074 3076 3079 3082 3085 3087 3090 3091 3094 3096 3098 3100 3103 3105 3106 3108 3109 3111 3113 3115 3116 3118 3120 3121 3122 3123 3125 3126 3128 3129 3130 3132 3134 3136 3138 3139 3140 3140 3140 3141 3143 3145 3147 3148 3150 3151 3153 3153 3154 3155 3155 3156 3157 3158 3159 3160 3162 3163 3164 3165
3005 3010 3012 3014 3018 3021 3023 3026 3029 3035 3039 3042 3046 3050 3053 3055 3059 3061 3063 3065 3066 3067 3069 3069 3070 3072 3072 3072 3076 3079 3082 3084 3086 3088 3091 3094 3096 3098 3100 3102 3104 3106 3107 3109 3111 3113 3114 3116 3118 3119 3120 3122 3123 3125 3127 3128 3129 3131 3133 3135 3137 3138 3139 3139 3139 3140 3143 3145 3147 3148 3149 3150 3152 3152 3152 3153 3154 3155 3156 3157 3158 3160 3161 3162 3164 3164
3004 3009 3011 3013 3016 3019 3021 3025 3029 3034 3039 3043 3048 3051 3053 3056 3058 3060 3062 3063 3065 3066 3065 3065 3067 3069 3069 3070 3074 3076 3078 3080 3082 3085 3088 3091 3093 3095 3098 3100 3102 3104 3106 3107 3109 3111 3113 3115 3116 3117 3119 3120 3122 3124 3125 3127 3129 3131 3133 3135 3136 3137 3137 3137 3138 3141 3144 3145 3146 3147 3148 3149 3150 3151 3152 3153 3154 3155 3156 3157 3158 3159 3161 3162 3163 3163
3004 3008 3012 3013 3015 3017 3021 3026 3031 3034 3038 3044 3049 3051 3053 3056 3057 3059 3061 3062 3064 3063 3060 3061 3064 3066 3067 3068 3071 3072 3074 3076 3080 3084 3086 3088 3090 3093 3095 3098 3100 3102 3104 3105 3107 3109 3111 3113 3114 3115 3117 3118 3120 3122 3124 3126 3128 3130 3132 3134 3135 3136 3136 3136 3137 3140 3143 3144 3145 3146 3147 3148 3149 3150 3151 3152 3152 3154 3155 3157 3158 3159 3160 3161 3162 3162
3005 3008 3012 3013 3014 3017 3022 3028 3031 3035 3039 3045 3049 3050 3053 3055 3056 3058 3059 3061 3063 3059 3056 3059 3062 3064 3065 3065 3067 3069 3071 3075 3079 3082 3083 3085 3087 3090 3092 3094 3096 3099 3101 3103 3105 3107 3109 3111 3112 3114 3115 3117 3119 3121 3123 3125 3127 3129 3131 3133 3134 3134 3134 3135 3136 3139 3142 3143 3144 3145 3145 3147 3148 3149 3150 3150 3151 3153 3155 3156 3157 3158 3159 3160 3161 3162
3005 3007 3010 3011 3014 3018 3023 3027 3031 3035 3039 3043 3046 3049 3052 3054 3055 3057 3058 3060 3059 3056 3055 3059 3061 3063 3063 3062 3064 3068 3071 3075 3077 3078 3080 3082 3084 3086 3089 3091 3094 3097 3099 3101 3103 3105 3107 3109 3110 3112 3113 3115 3117 3119 3122 3124 3126 3128 3129 3131 3132 3132 3132 3134 3137 3140 3142 3142 3143 3143 3144 3145 3146 3147 3149 3149 3151 3153 3155 3156 3157 3158 3159 3159 3160 3161
3003 3004 3007 3011 3015 3017 3020 3025 3030 3034 3037 3040 3043 3045 3048 3051 3053 3055 3055 3056 3055 3054 3055 3058 3060 3061 3060 3060 3064 3067 3070 3072 3074 3076 3079 3080 3082 3084 3087 3089 3092 3095 3097 3099 3101 3103 3105 3107 3108 3110 3111 3113 3115 3118 3120 3123 3125 3126 3128 3130 3131 3130 3131 3134 3137 3139 3140 3141 3142 3142 3142 3144 3144 3145 3148 3149 3150 3152 3153 3155 3156 3157 3158 3159 3159 3160
3002 3004 3006 3009 3013 3015 3017 3019 3022 3026 3029 3033 3036 3039 3042 3046 3049 3051 3052 3053 3054 3054 3055 3056 3059 3059 3058 3059 3062 3064 3068 3070 3072 3075 3076 3078 3080 3083 3085 3088 3090 3092 3095 3097 3099 3101 3103 3105 3107 3108 3110 3112 3114 3117 3119 3121 3123 3125 3127 3129 3129 3129 3130 3133 3137 3138 3139 3141 3141 3139 3141 3143 3144 3145 3147 3150 3151 3151 3153 3154 3156 3157 3157 3158 3159 3159
2999 3002 3003 3005 3008 3011 3014 3017 3018 3022 3027 3031 3034 3038 3040 3041 3044 3047 3049 3051 3052 3053 3054 3056 3057 3056 3055 3058 3060 3063 3066 3067 3069 3071 3073 3075 3078 3080 3083 3085 3088 3090 3092 3095 3097 3099 3101 3103 3105 3107 3109 3111 3114 3116 3118 3120 3122 3124 3126 3128 3128 3128 3128 3131 3135 3136 3137 3140 3140 3139 3140 3141 3143 3146 3148 3150 3151 3151 3153 3154 3155 3156 3157 3157 3158 3158
2999 3000 3000 3003 3007 3010 3013 3017 3021 3025 3028 3032 3036 3038 3039 3040 3042 3045 3047 3049 3050 3052 3054 3054 3054 3053 3054 3057 3059 3061 3063 3064 3066 3067 3070 3073 3075 3077 3079 3082 3085 3088 3090 3093 3095 3097 3099 3101 3103 3105 3107 3110 3113 3115 3117 3119 3121 3123 3125 3126 3127 3127 3127 3128 3132 3133 3135 3138 3139 3139 3140 3141 3143 3146 3147 3149 3150 3151 3152 3153 3154 3155 3156 3156 3157 3157
2998 2999 3000 3004 3008 3010 3013 3017 3021 3023 3025 3029 3032 3033 3036 3041 3043 3044 3046 3048 3049 3051 3051 3051 3051 3052 3054 3055 3056 3058 3059 3061 3063 3065 3068 3070 3072 3074 3076 3079 3082 3085 3087 3091 3094 3096 3098 3100 3101 3103 3106 3109 3111 3114 3116 3117 3119 3121 3123 3124 3126 3127 3126 3127 3130 3130 3131 3134 3137 3138 3139 3141 3143 3145 3147 3148 3149 3150 3152 3152 3153 3154 3154 3155 3155 3156
2997 2999 3000 3003 3006 3010 3013 3017 3021 3024 3024 3025 3028 3031 3036 3042 3044 3043 3045 3047 3049 3050 3049 3049 3050 3051 3052 3051 3052 3054 3056 3058 3061 3064 3066 3068 3069 3071 3073 3076 3079 3082 3086 3089 3092 3094 3096 3098 3100 3102 3105 3107 3110 3113 3115 3116 3118 3120 3121 3123 3124 3126 3125 3124 3126 3127 3129 3132 3134 3137 3139 3141 3143 3144 3145 3147 3148 3149 3151 3151 3152 3153 3153 3154 3154 3155
2996 2999 3000 3002 3006 3008 3012 3017 3020 3022 3024 3025 3028 3032 3036 3039 3040 3041 3044 3046 3048 3049 3049 3048 3049 3049 3049 3049 3049 3051 3053 3056 3059 3061 3063 3065 3067 3068 3070 3073 3077 3080 3084 3087 3089 3092 3094 3096 3098 3101 3103 3106 3108 3111 3113 3115 3117 3119 3120 3121 3123 3124 3123 3122 3123 3126 3128 3129 3132 3135 3137 3139 3141 3142 3144 3145 3147 3148 3150 3151 3151 3152 3152 3153 3153 3154
2995 2998 2999 3002 3006 3008 3011 3013 3013 3016 3021 3025 3029 3032 3034 3036 3038 3040 3042 3042 3044 3047 3047 3048 3048 3046 3046 3048 3049 3049 3051 3054 3057 3059 3062 3064 3065 3066 3068 3071 3075 3078 3081 3084 3087 3090 3092 3095 3097 3100 3102 3104 3107 3110 3112 3114 3116 3117 3119 3120 3122 3123 3122 3123 3124 3126 3127 3127 3130 3133 3136 3138 3140 3141 3143 3144 3146 3148 3149 3150 3150 3151 3152 3152 3152 3153
2995 2996 2998 3001 3005 3006 3006 3005 3006 3010 3016 3020 3024 3026 3029 3034 3037 3040 3042 3041 3042 3044 3046 3047 3047 3044 3045 3047 3048 3048 3050 3053 3056 3058 3061 3062 3063 3065 3067 3070 3074 3077 3079 3082 3085 3088 3091 3094 3096 3098 3100 3103 3106 3108 3111 3113 3115 3117 3118 3120 3121 3122 3123 3123 3124 3126 3127 3127 3128 3131 3134 3137 3138 3140 3142 3144 3146 3147 3148 3149 3149 3150 3151 3151 3152 3152
2994 2996 2997 2999 3001 3001 3001 3003 3007 3012 3016 3019 3022 3024 3028 3032 3035 3038 3041 3040 3041 3042 3044 3045 3043 3041 3043 3046 3046 3047 3048 3051 3054 3057 3059 3060 3062 3064 3066 3069 3073 3075 3078 3080 3084 3087 3090 3092 3095 3097 3099 3101 3104 3107 3110 3112 3114 3116 3118 3119 3121 3122 3122 3123 3124 3126 3127 3127 3129 3131 3134 3136 3138 3140 3142 3144 3145 3146 3147 3148 3148 3149 3150 3150 3151 3151
2993 2994 2996 2997 2998 3000 3004 3007 3011 3015 3019 3022 3024 3026 3029 3032 3034 3036 3039 3040 3041 3042 3042 3043 3041 3039 3040 3043 3043 3044 3046 3048 3052 3054 3056 3058 3060 3063 3065 3068 3071 3074 3077 3080 3083 3086 3088 3091 3093 3095 3098 3100 3103 3106 3108 3111 3113 3115 3117 3118 3120 3121 3122 3123 3124 3125 3126 3128 3129 3131 3133 3135 3137 3139 3141 3143 3144 3145 3145 3146 3147 3148 3148 3149 3149 3150
2993 2994 2995 2996 2999 3004 3007 3009 3013 3016 3019 3021 3023 3025 3028 3031 3033 3037 3039 3040 3041 3041 3042 3042 3040 3037 3038 3040 3041 3042 3044 3047 3049 3052 3054 3057 3059 3061 3064 3067 3070 3073 3075 3078 3081 3084 3086 3089 3091 3094 3096 3099 3102 3105 3107 3110 3112 3114 3116 3117 3118 3120 3121 3122 3123 3125 3126 3127 3129 3131 3133 3134 3136 3138 3140 3141 3142 3143 3144 3145 3145 3146 3146 3147 3147 3148
2992 2994 2994 2996 3000 3004 3007 3010 3012 3014 3016 3017 3020 3023 3026 3029 3034 3037 3039 3040 3039 3040 3041 3041 3039 3036 3036 3039 3040 3041 3043 3045 3047 3050 3053 3055 3057 3060 3063 3066 3069 3071 3073 3076 3079 3082 3084 3087 3089 3092 3095 3098 3100 3104 3106 3109 3111 3113 3114 3116 3117 3119 3120 3121 3123 3124 3125 3127 3128 3130 3132 3134 3135 3137 3139 3140 3141 3142 3143 3143 3144 3144 3145 3145 3146 3146
2992 2993 2994 2994 2996 2999 3001 3002 3002 3004 3009 3013 3017 3021 3024 3028 3032 3035 3037 3038 3038 3038 3040 3040 3038 3036 3037 3038 3040 3041 3042 3044 3046 3049 3052 3054 3056 3059 3062 3065 3068 3069 3072 3074 3077 3080 3082 3085 3088 3091 3093 3096 3099 3103 3105 3107 3109 3111 3113 3115 3116 3118 3119 3120 3122 3123 3124 3126 3127 3129 3131 3133 3134 3136 3137 3138 3139 3140 3141 3141 3142 3143 3143 3144 3144 3145
2992 2992 2993 2994 2994 2995 2995 2996 2998 3001 3006 3010 3015 3019 3023 3026 3030 3033 3035 3036 3037 3038 3038 3038 3037 3037 3037 3038 3039 3041 3042 3043 3045 3048 3050 3053 3054 3057 3060 3064 3066 3068 3070 3073 3076 3078 3081 3084 3087 3089 3092 3095 3098 3101 3104 3106 3108 3110 3112 3113 3115 3116 3118 3119 3121 3122 3124 3125 3126 3128 3130 3131 3133 3134 3136 3137 3138 3139 3139 3140 3140 3141 3142 3142 3143 3143
2992 2991 2991 2992 2994 2996 2997 2999 3002 3005 3008 3011 3015 3019 3022 3025 3028 3031 3033 3035 3036 3037 3036 3036 3037 3037 3037 3038 3039 3041 3042 3043 3045 3047 3050 3052 3054 3056 3059 3063 3065 3067 3070 3072 3075 3077 3080 3083 3086 3088 3091 3094 3097 3100 3102 3104 3106 3108 3110 3112 3113 3115 3117 3118 3119 3121 3122 3124 3126 3127 3129 3130 3132 3133 3134 3135 3136 3137 3138 3138 3139 3139 3140 3141 3141 3141
2992 2990 2990 2991 2993 2996 2998 3000 3002 3006 3009 3013 3016 3019 3022 3024 3027 3029 3031 3033 3035 3036 3035 3036 3037 3037 3037 3039 3040 3041 3042 3043 3045 3048 3050 3051 3053 3056 3059 3061 3064 3066 3068 3071 3073 3076 3079 3082 3085 3088 3091 3093 3096 3099 3101 3103 3105 3107 3109 3110 3112 3114 3116 3117 3118 3120 3121 3123 3124 3126 3128 3129 3131 3132 3133 3134 3135 3135 3136 3136 3137 3138 3138 3139 3139 3139
2992 2990 2989 2991 2994 2995 2997 2999 3002 3006 3010 3013 3016 3019 3022 3024 3026 3028 3030 3032 3034 3035 3035 3035 3036 3037 3037 3038 3039 3041 3042 3043 3045 3048 3049 3051 3054 3056 3058 3061 3063 3065 3067 3070 3073 3076 3079 3082 3085 3088 3090 3093 3095 3097 3099 3101 3103 3105 3107 3109 3110 3112 3114 3116 3117 3119 3120 3122 3123 3125 3126 3128 3129 3130 3131 3132 3133 3133 3134 3134 3135 3136 3136 3137 3137 3137
2991 2989 2989 2991 2993 2995 2997 2999 3002 3006 3009 3012 3015 3018 3021 3023 3026 3027 3029 3031 3033 3034 3035 3035 3035 3036 3037 3038 3039 3041 3042 3044 3046 3047 3049 3051 3053 3056 3058 3061 3063 3065 3067 3070 3073 3076 3079 3081 3084 3087 3089 3091 3093 3095 3097 3099 3101 3103 3105 3107 3109 3111 3112 3114 3116 3118 3119 3121 3122 3124 3125 3126 3128 3129 3130 3130 3131 3131 3132 3132 3133 3133 3134 3134 3135 3136
2989 2989 2990 2991 2993 2995 2997 2999 3002 3006 3010 3013 3014 3017 3019 3022 3024 3026 3028 3030 3032 3033 3034 3035 3035 3036 3037 3037 3038 3040 3041 3043 3045 3047 3049 3051 3053 3056 3058 3060 3063 3065 3067 3070 3073 3075 3078 3080 3083 3085 3087 3089 3091 3093 3095 3097 3099 3101 3103 3105 3107 3109 3110 3112 3114 3116 3117 3119 3120 3122 3123 3125 3126 3127 3128 3128 3129 3129 3130 3130 3131 3131 3132 3132 3133 3134
2988 2989 2990 2991 2993 2996 2998 3000 3002 3006 3011 3013 3014 3016 3019 3021 3023 3025 3027 3029 3031 3032 3033 3034 3035 3036 3037 3037 3038 3039 3040 3042 3044 3047 3049 3051 3053 3055 3058 3060 3063 3066 3068 3071 3073 3075 3078 3080 3082 3084 3086 3088 3090 3092 3094 3096 3097 3099 3101 3103 3105 3107 3108 3110 3112 3113 3115 3116 3118 3120 3121 3122 3124 3125 3126 3126 3127 3127 3128 3128 3128 3129 3129 3130 3131 3132
2987 2989 2990 2991 2993 2996 2998 3001 3003 3007 3010 3012 3014 3016 3019 3020 3022 3024 3026 3028 3030 3031 3033 3034 3035 3036 3036 3037 3038 3039 3040 3042 3044 3046 3048 3051 3053 3056 3058 3061 3064 3067 3069 3071 3073 3075 3077 3079 3081 3083 3085 3087 3089 3090 3092 3094 3095 3097 3099 3101 3102 3104 3105 3107 3109 3110 3112 3114 3115 3117 3119 3120 3121 3122 3123 3124 3124 3125 3125 3126 3126 3127 3127 3128 3129 3130
2987 2989 2990 2991 2994 2997 2999 3001 3004 3008 3010 3011 3014 3017 3018 3019 3021 3024 3026 3028 3029 3031 3032 3033 3034 3035 3036 3036 3037 3038 3040 3042 3043 3045 3048 3051 3053 3056 3058 3061 3064 3066 3069 3071 3073 3075 3076 3078 3080 3082 3083 3085 3087 3089 3090 3091 3093 3094 3096 3097 3099 3101 3103 3104 3106 3107 3109 3110 3112 3114 3116 3117 3118 3119 3120 3121 3122 3122 3122 3123 3124 3124 3125 3126 3127 3129
2989 2990 2990 2991 2994 2997 2999 3001 3004 3008 3010 3011 3014 3016 3018 3019 3021 3023 3025 3027 3029 3030 3031 3032 3033 3034 3035 3037 3038 3039 3040 3042 3044 3046 3048 3050 3053 3055 3058 3060 3063 3065 3068 3070 3072 3073 3075 3077 3078 3079 3081 3084 3086 3087 3088 3089 3091 3092 3094 3095 3096 3098 3100 3101 3103 3104 3106 3107 3109 3111 3113 3114 3115 3116 3117 3118 3118 3118 3120 3121 3121 3121 3122 3124 3126 3127
2990 2990 2991 2992 2995 2997 2999 3001 3004 3008 3010 3012 3014 3015 3017 3019 3021 3022 3024 3026 3028 3029 3030 3031 3032 3034 3036 3037 3038 3039 3041 3042 3044 3046 3047 3050 3052 3054 3057 3059 3061 3064 3066 3068 3070 3071 3073 3075 3076 3077 3080 3082 3084 3085 3086 3087 3089 3090 3091 3092 3093 3095 3097 3098 3100 3101 3103 3104 3106 3107 3109 3110 3111 3113 3114 3114 3114 3116 3117 3117 3117 3118 3120 3122 3123 3125
2991 2991 2991 2993 2996 2998 2999 3002 3006 3009 3011 3012 3013 3015 3017 3019 3021 3022 3024 3026 3027 3029 3029 3031 3032 3034 3035 3037 3039 3040 3041 3043 3044 3046 3048 3049 3051 3054 3056 3058 3060 3062 3064 3066 3068 3069 3071 3072 3074 3075 3078 3080 3082 3083 3084 3085 3087 3087 3087 3088 3090 3092 3094 3095 3097 3098 3099 3100 3101 3103 3105 3106 3108 3110 3111 3111 3112 3114 3114 3113 3113 3115 3117 3119 3121 3122
2992 2992 2993 2994 2997 2999 3000 3002 3007 3010 3011 3012 3013 3015 3016 3018 3020 3022 3024 3026 3027 3028 3029 3031 3032 3034 3036 3037 3039 3040 3042 3043 3045 3047 3048 3050 3051 3053 3055 3057 3059 3061 3063 3065 3066 3067 3069 3071 3072 3073 3075 3078 3079 3080 3081 3083 3084 3084 3084 3085 3088 3090 3092 3093 3095 3096 3097 3097 3099 3101 3103 3104 3106 3108 3107 3108 3109 3111 3110 3110 3111 3112 3114 3116 3118 3120
2994 2994 2995 2996 2999 3001 3001 3003 3007 3009 3011 3012 3013 3015 3016 3018 3020 3022 3024 3026 3027 3028 3029 3031 3032 3034 3036 3037 3039 3040 3042 3044 3046 3047 3048 3050 3051 3053 3054 3056 3058 3060 3062 3063 3064 3066 3068 3069 3071 3072 3074 3076 3077 3078 3079 3081 3081 3082 3083 3086 3088 3089 3090 3091 3093 3094 3095 3096 3098 3100 3101 3102 3104 3105 3104 3104 3106 3107 3106 3106 3107 3108 3110 3113 3115 3117
2996 2997 2998 2999 3000 3002 3003 3005 3007 3010 3011 3013 3014 3015 3017 3018 3020 3022 3024 3026 3027 3028 3029 3031 3033 3034 3036 3038 3040 3041 3043 3044 3045 3047 3048 3049 3051 3052 3054 3055 3057 3058 3060 3061 3063 3065 3067 3068 3069 3071 3072 3073 3074 3076 3077 3078 3078 3080 3083 3086 3088 3088 3089 3090 3091 3092 3093 3094 3096 3098 3099 3100 3101 3102 3102 3102 3103 3104 3105 3106 3108 3107 3107 3110 3113 3116
2998 2999 3000 3001 3002 3004 3005 3006 3008 3010 3012 3014 3014 3016 3017 3018 3020 3022 3024 3025 3027 3028 3029 3031 3033 3034 3036 3038 3040 3041 3043 3044 3046 3047 3048 3049 3051 3052 3053 3055 3056 3057 3058 3060 3061 3063 3064 3066 3067 3068 3069 3070 3071 3073 3074 3074 3076 3078 3081 3083 3085 3086 3087 3088 3089 3090 3091 3093 3094 3095 3097 3098 3098 3099 3100 3100 3101 3102 3104 3107 3110 3109 3107 3108 3111 3114
3001 3001 3002 3003 3004 3005 3006 3008 3009 3011 3013 3014 3015 3016 3017 3019 3021 3023 3024 3025 3026 3028 3029 3031 3033 3034 3036 3038 3039 3040 3042 3044 3046 3047 3048 3049 3051 3052 3053 3054 3055 3056 3058 3059 3060 3061 3063 3064 3065 3066 3067 3068 3069 3070 3071 3072 3074 3075 3077 3080 3081 3082 3084 3086 3087 3089 3090 3090 3092 3093 3094 3095 3096 3097 3098 3098 3099 3101 3102 3104 3108 3109 3106 3106 3109 3112
3003 3003 3004 3005 3005 3006 3007 3008 3010 3012 3013 3014 3015 3016 3018 3019 3021 3023 3024 3025 3027 3028 3029 3031 3032 3034 3036 3037 3038 3040 3041 3042 3044 3046 3048 3049 3050 3051 3052 3053 3054 3055 3056 3058 3059 3060 3061 3063 3064 3065 3066 3066 3067 3068 3069 3070 3072 3073 3075 3077 3079 3080 3082 3084 3085 3086 3088 3088 3090 3091 3092 3093 3094 3095 3096 3096 3097 3099 3100 3102 3105 3107 3106 3106 3108 3110
3004 3005 3006 3006 3007 3007 3008 3009 3011 3012 3014 3015 3016 3017 3018 3020 3021 3023 3024 3025 3026 3028 3029 3030 3032 3033 3035 3036 3037 3039 3040 3041 3042 3044 3046 3047 3048 3049 3050 3051 3053 3054 3055 3056 3057 3059 3060 3061 3062 3063 3064 3064 3065 3066 3066 3068 3070 3071 3073 3076 3077 3078 3080 3082 3083 3085 3086 3086 3087 3088 3089 3090 3091 3092 3093 3094 3096 3098 3100 3101 3104 3105 3105 3105 3107 3109
3005 3006 3007 3008 3008 3009 3009 3010 3012 3013 3014 3015 3016 3018 3019 3020 3021 3023 3024 3025 3026 3027 3028 3030 3031 3032 3034 3035 3036 3037 3039 3039 3040 3042 3043 3045 3046 3048 3049 3050 3051 3052 3053 3054 3055 3057 3058 3059 3060 3061 3062 3063 3063 3063 3064 3066 3067 3069 3071 3074 3075 3077 3078 3080 3082 3083 3083 3084 3085 3086 3087 3088 3089 3090 3092 3093 3095 3096 3098 3100 3102 3104 3104 3104 3106 3108
3006 3007 3008 3009 3009 3010 3011 3012 3013 3014 3015 3016 3017 3018 3019 3021 3022 3023 3024 3025 3026 3027 3027 3028 3030 3031 3032 3033 3034 3035 3036 3037 3038 3040 3041 3043 3044 3046 3047 3048 3050 3051 3052 3053 3054 3055 3056 3057 3058 3059 3060 3061 3061 3062 3062 3063 3064 3066 3069 3071 3073 3074 3076 3077 3079 3080 3081 3081 3083 3084 3085 3086 3087 3089 3090 3092 3093 3094 3096 3098 3100 3101 3102 3103 3105 3106
3006 3007 3008 3009 3010 3011 3012 3013 3014 3015 3016 3017 3018 3019 3020 3021 3022 3023 3024 3025 3026 3026 3027 3027 3028 3029 3030 3031 3032 3033 3034 3035 3036 3038 3040 3041 3042 3044 3045 3046 3048 3049 3050 3051 3052 3053 3054 3055 3057 3057 3058 3059 3059 3060 3060 3061 3062 3064 3066 3068 3070 3072 3073 3075 3077 3078 3078 3079 3080 3081 3082 3084 3085 3087 3088 3090 3091 3093 3094 3096 3098 3100 3101 3102 3103 3105
3006 3007 3008 3009 3011 3012 3012 3013 3014 3015 3016 3017 3018 3019 3020 3020 3021 3022 3023 3024 3025 3026 3026 3027 3027 3028 3029 3029 3030 3031 3031 3032 3033 3035 3037 3038 3040 3041 3042 3043 3045 3046 3048 3049 3051 3052 3053 3054 3055 3056 3057 3057 3058 3058 3059 3059 3061 3062 3064 3066 3068 3070 3072 3073 3074 3075 3075 3076 3078 3079 3080 3082 3083 3085 3086 3088 3089 3091 3092 3094 3096 3098 3099 3100 3101 3102
3006 3007 3008 3009 3011 3012 3012 3013 3014 3015 3016 3017 3017 3018 3019 3020 3021 3022 3022 3023 3024 3025 3026 3026 3027 3027 3027 3028 3028 3028 3029 3030 3030 3032 3033 3035 3037 3038 3039 3040 3042 3044 3045 3047 3049 3050 3051 3052 3053 3054 3055 3056 3056 3057 3057 3058 3059 3061 3062 3064 3065 3068 3069 3071 3071 3072 3073 3075 3076 3077 3078 3080 3081 3082 3084 3085 3087 3088 3090 3092 3093 3095 3096 3097 3099 3100
3006 3007 3008 3009 3010 3011 3012 3013 3014 3015 3015 3016 3017 3018 3018 3019 3020 3021 3021 3022 3023 3024 3024 3025 3026 3026 3026 3026 3027 3027 3027 3028 3028 3029 3030 3032 3034 3035 3036 3038 3040 3041 3043 3045 3046 3048 3049 3050 3051 3052 3053 3054 3054 3055 3055 3056 3058 3059 3060 3061 3063 3065 3067 3068 3069 3070 3072 3073 3074 3075 3076 3078 3079 3080 3081 3083 3085 3086 3088 3089 3091 3093 3094 3095 3096 3098